TimeCDT,TemperatureF,Dew PointF,Humidity,Sea Level PressureIn,VisibilityMPH,Wind Direction,Wind SpeedMPH,Gust SpeedMPH,PrecipitationIn,Events,Conditions,WindDirDegrees,DateUTC
12:53 AM,23.0,21.0,92,30.41,10.0,Calm,Calm,-,N/A,,Clear,0,2012-10-27 05:53:00
1:53 AM,21.9,21.0,96,30.40,8.0,Calm,Calm,-,N/A,,Clear,0,2012-10-27 06:53:00
2:53 AM,21.0,19.0,92,30.38,9.0,Calm,Calm,-,N/A,,Clear,0,2012-10-27 07:53:00
3:53 AM,23.0,19.9,88,30.37,7.0,Calm,Calm,-,N/A,,Partly Cloudy,0,2012-10-27 08:53:00
4:53 AM,28.0,24.1,85,30.35,10.0,SSW,5.8,-,N/A,,Overcast,210,2012-10-27 09:53:00
5:53 AM,28.0,24.1,85,30.36,10.0,SSW,9.2,-,N/A,,Overcast,210,2012-10-27 10:53:00
6:53 AM,26.1,23.0,88,30.35,10.0,SSE,5.8,-,N/A,,Clear,150,2012-10-27 11:53:00
7:53 AM,27.0,24.1,89,30.32,10.0,South,9.2,-,N/A,,Overcast,180,2012-10-27 12:53:00
8:53 AM,28.9,24.1,82,30.33,10.0,SSE,6.9,-,N/A,,Partly Cloudy,160,2012-10-27 13:53:00
9:53 AM,30.0,25.0,82,30.33,10.0,South,10.4,-,N/A,,Overcast,180,2012-10-27 14:53:00
10:53 AM,33.1,26.1,75,30.32,10.0,SSW,17.3,26.5,N/A,,Clear,200,2012-10-27 15:53:00
11:53 AM,36.0,26.1,67,30.31,10.0,South,19.6,27.6,N/A,,Scattered Clouds,190,2012-10-27 16:53:00
12:53 PM,37.9,26.1,62,30.28,10.0,South,18.4,28.8,N/A,,Mostly Cloudy,190,2012-10-27 17:53:00
1:53 PM,39.9,26.1,58,30.23,10.0,South,20.7,28.8,N/A,,Overcast,190,2012-10-27 18:53:00
2:53 PM,42.1,27.0,55,30.21,10.0,South,18.4,27.6,N/A,,Overcast,190,2012-10-27 19:53:00
3:53 PM,44.1,27.0,51,30.19,10.0,SSW,17.3,26.5,N/A,,Mostly Cloudy,200,2012-10-27 20:53:00
4:53 PM,45.0,27.0,49,30.17,10.0,South,12.7,25.3,N/A,,Mostly Cloudy,190,2012-10-27 21:53:00
5:53 PM,44.1,28.0,53,30.17,10.0,South,9.2,-,N/A,,Overcast,190,2012-10-27 22:53:00
6:53 PM,39.9,27.0,60,30.19,10.0,South,8.1,-,N/A,,Clear,170,2012-10-27 23:53:00
7:53 PM,37.0,26.1,65,30.21,10.0,SE,6.9,-,N/A,,Clear,140,2012-10-28 00:53:00
8:53 PM,35.1,25.0,67,30.22,10.0,SSE,5.8,-,N/A,,Clear,160,2012-10-28 01:53:00
9:53 PM,34.0,25.0,70,30.24,10.0,South,8.1,-,N/A,,Clear,180,2012-10-28 02:53:00
10:53 PM,32.0,24.8,75,30.18,10.0,WSW,4.6,-,N/A,,Clear,250,2012-10-28 03:53:00
11:53 PM,30.9,24.1,76,30.25,10.0,SW,4.6,-,N/A,,Clear,220,2012-10-28 04:53:00